Flag for Germany Weather past 2 weeks in Dachau, Bavaria, Germany

Now
59 °F

Passing clouds.


Feels Like: 59 °F
Forecast: 60 / 70 °F
Wind: 2 mph from North

Location: Munich / Franz Josef Strauss Airport

Current Time: Jul 29, 2014 at 5:01:05 AM

Latest Report: Jul 29, 2014 at 4:20 AM


Visibility: 5 mi

Pressure: 29.80 "Hg

Humidity: 100%

Dew point: 59 °F

Location of DachauLocation

Historic Weather in Dachau — Graph

°F

Dachau temperature yesterday

Maximum temperature yesterday: 79 °F (at 5:20 PM)
Minimum temperature yesterday: 59 °F (at 1:20 AM)
Average temperature yesterday: 68 °F

Past Weeks' High & Low Weather Summary

 TemperatureHumidityPressure
High88 °F (Jul 19, 3:20 PM)100% (Jul 15, 4:20 AM)30.21 "Hg (Jul 15, 4:20 AM)
Low50 °F (Jul 24, 5:50 AM)29% (Jul 19, 6:20 PM)29.77 "Hg (Jul 28, 7:20 PM)
Average68 °F75%29.99 "Hg
* Reported Jul 14 3:20 AM — Jul 29 3:50 AM, Dachau, Weather by CustomWeather, © 2014

Note: Actual official high and low records may vary slightly from our data, if they occured in-between our weather recording intervals... More about our weather records

Advertising

Dachau weather history for previous 24 hours

 ConditionsComfort  
Time TempWeatherWind HumidityBarometerVisibility
3:50 AM
Jul 29
59 °FPassing clouds.2 mph94%29.80 "Hg5 mi
3:20 AM59 °FPassing clouds.1 mph100%29.80 "HgN/A
2:50 AM61 °FClear.3 mph94%29.80 "Hg10 mi
2:20 AM59 °FClear.2 mph94%29.80 "Hg10 mi
1:50 AM59 °FClear.2 mph94%29.80 "Hg10 mi
1:20 AM63 °FClear.1 mph88%29.80 "Hg10 mi
12:50 AM63 °FPassing clouds.3 mph88%29.80 "HgN/A
12:20 AM63 °FClear.5 mph88%29.80 "Hg10 mi
11:50 PM
Jul 28
64 °FPassing clouds.3 mph83%29.80 "HgN/A
11:20 PM66 °FPassing clouds.3 mph83%29.80 "HgN/A
10:50 PM68 °FClear.2 mph78%29.80 "Hg10 mi
10:20 PM68 °FClear.5 mph83%29.80 "Hg10 mi
9:50 PM70 °FSunny.6 mph78%29.80 "Hg10 mi
9:20 PM72 °FScattered clouds.7 mph73%29.83 "HgN/A
8:50 PM73 °FScattered clouds.7 mph65%29.80 "HgN/A
8:20 PM75 °FScattered clouds.6 mph61%29.80 "HgN/A
7:50 PM77 °FScattered clouds.6 mph61%29.80 "HgN/A
7:20 PM77 °FScattered clouds.8 mph57%29.77 "HgN/A
6:50 PM77 °FScattered clouds.8 mph57%29.80 "HgN/A
6:20 PM77 °FScattered clouds.9 mph54%29.80 "HgN/A
5:50 PM79 °FScattered clouds.8 mph54%29.80 "HgN/A
5:20 PM79 °FBroken clouds.9 mph51%29.80 "HgN/A
4:50 PM77 °FBroken clouds.7 mph57%29.83 "HgN/A
4:20 PM77 °FBroken clouds.12 mph57%29.83 "HgN/A
3:50 PM77 °FPartly sunny.7 mph61%29.83 "HgN/A
3:20 PM75 °FPartly sunny.7 mph65%29.86 "HgN/A
2:50 PM75 °FPartly sunny.6 mph69%29.86 "HgN/A
2:20 PM75 °FPartly sunny.6 mph65%29.89 "HgN/A
1:50 PM75 °FPartly sunny.5 mph65%29.89 "HgN/A
1:20 PM73 °FPartly sunny.2 mph69%29.89 "HgN/A
12:50 PM72 °FPartly sunny.3 mph78%29.92 "HgN/A
12:20 PM70 °FBroken clouds.2 mph78%29.92 "HgN/A
11:50 AM68 °FBroken clouds.2 mph83%29.92 "HgN/A
11:20 AM66 °FPartly sunny.2 mph88%29.92 "Hg4 mi
10:50 AM64 °FLow clouds.1 mph94%29.95 "Hg4 mi
10:20 AM64 °FMild.2 mph94%29.95 "HgN/A
9:50 AM64 °FFog.1 mph88%29.95 "Hg3 mi
9:20 AM63 °FFog.1 mph94%29.95 "Hg2 mi
8:50 AM63 °FFog.1 mph94%29.95 "Hg2 mi
8:20 AM63 °FFog.2 mph94%29.95 "Hg1 mi
7:50 AM63 °FFog.2 mph94%29.95 "Hg1 mi
7:20 AM63 °FFog.7 mph94%29.95 "Hg1 mi
6:50 AM63 °FFog.6 mph94%29.95 "Hg3 mi
6:20 AM61 °FLow clouds.5 mph100%29.98 "Hg4 mi
5:50 AM61 °FLow clouds.2 mph94%29.98 "Hg5 mi
5:20 AM61 °FLow clouds.1 mph94%29.98 "Hg6 mi
Weather by CustomWeather, © 2014

See weather overviewHow to use our weather pages